Find Starlink 3655

NORAD ID: 51983 Int'l Des: 2022-025 Owner: SPXS Country: US Constellation: starlink operational
LEOCIRCULAR

当前视图

正在加载3D地球...

关于 Starlink 3655

正在加载描述...

即将过境

Passes for default location (London). Set your location on the main map for personalized predictions.

高度历史

Loading altitude history...

两行轨道根数

1 51983U 22025AD 26146.11253059 -.00000921 00000-0 -39739-4 0 9991
2 51983 53.2121 51.5611 0001547 101.5034 258.6132 15.08844940232740
Epoch: May 26, 2026 • Age: 16 hours

当前状态

高度 559.3 km
速度 7.58 km/s
星下点 -53.30°S, 165.14°E
发射日期 Mar 9, 2022
运行时间 4.2 years
类型 internet

技术详情

分类 Payload
质量 297.00 kg
干质量 275.00 kg
总质量 297.00 kg
长度 0.20 m
直径 2.80 m
跨度 9.00 m
形状 Box + pan
制造商 SPXS
平台类型 Starlink
阶段状态 In Orbit
所有者/国家 SPXS/US

Most Searched